QPF
0.00 0.00 0.00 0.00 0.00 0.00 0.00 0.00 0.00 0.00 0.00 0.00 0.00 0.00 0.00 0.00 0.02 0.02 0.02 0.04 0.04 0.01 0.00 0.00 0.00 0.00 0.00 0.00 0.00 0.00 0.00 0.00 0.00 0.00 0.00 0.01 0.01 0.02 0.01 0.00 0.00 0.00 0.00
0.00 0.00 0.00 0.00 0.00 0.00 0.00 0.00 0.00 0.00 0.00 0.00 0.00 0.00 0.00 0.00 0.00 0.02 0.02 0.04 0.04 0.03 0.01 0.01 0.00 0.00 0.00 0.00 0.00 0.00 0.00 0.00 0.00 0.00 0.00 0.01 0.01 0.00 0.00 0.00 0.00 0.00 0.00
0.00 0.00 0.00 0.00 0.00 0.00 0.00 0.00 0.00 0.00 0.00 0.00 0.00 0.00 0.00 0.00 0.00 0.00 0.02 0.03 0.03 0.03 0.00 0.01 0.01 0.01 0.01 0.00 0.00 0.00 0.00 0.00 0.00 0.00 0.00 0.00 0.00 0.00 0.00 0.00 0.00 0.00 0.00
0.00 0.00 0.00 0.00 0.00 0.00 0.00 0.00 0.00 0.00 0.00 0.00 0.00 0.00 0.00 0.00 0.00 0.00 0.00 0.03 0.01 0.01 0.01 0.03 0.01 0.00 0.00 0.00 0.00 0.00 0.00 0.00 0.00 0.00 0.00 0.00 0.00 0.00 0.00 0.00 0.00 0.00 0.00
0.01 0.01 0.01 0.00 0.00 0.00 0.00 0.00 0.00 0.00 0.00 0.00 0.00 0.00 0.00 0.00 0.00 0.00 0.00 0.00 0.01 0.03 0.02 0.01 0.00 0.00 0.00 0.00 0.00 0.00 0.00 0.00 0.00 0.00 0.00 0.00 0.00 0.00 0.00 0.00 0.00 0.00 0.03
0.18 0.07 0.00 0.00 0.02 0.03 0.00 0.00 0.01 0.00 0.00 0.00 0.00 0.00 0.00 0.00 0.00 0.01 0.00 0.02 0.06 0.01 0.01 0.02 0.00 0.00 0.00 0.00 0.00 0.00 0.00 0.00 0.00 0.00 0.00 0.00 0.00 0.00 0.00 0.00 0.00 0.00 0.01
0.11 0.20 0.12 0.02 0.03 0.08 0.07 0.01 0.01 0.00 0.00 0.00 0.00 0.00 0.00 0.04 0.05 0.06 0.09 0.06 0.06 0.08 0.02 0.05 0.00 0.00 0.00 0.00 0.00 0.00 0.00 0.00 0.00 0.00 0.00 0.00 0.00 0.00 0.00 0.00 0.00 0.00 0.00
0.01 0.03 0.12 0.12 0.04 0.04 0.00 0.00 0.00 0.00 0.00 0.00 0.02 0.09 0.07 0.11 0.11 0.06 0.20 0.27 0.30 0.15 0.03 0.06 0.00 0.00 0.00 0.00 0.00 0.00 0.00 0.00 0.00 0.00 0.00 0.00 0.00 0.00 0.00 0.00 0.00 0.00 0.00
0.00 0.00 0.00 0.02 0.01 0.01 0.00 0.00 0.00 0.00 0.00 0.06 0.15 0.17 0.05 0.06 0.13 0.11 0.37 0.45 0.49 0.36 0.13 0.07 0.00 0.00 0.00 0.00 0.00 0.00 0.00 0.00 0.00 0.00 0.00 0.00 0.00 0.00 0.00 0.00 0.00 0.00 0.00
0.00 0.00 0.00 0.01 0.01 0.01 0.01 0.00 0.00 0.00 0.00 0.02 0.07 0.10 0.09 0.02 0.01 0.09 0.74 0.81 0.64 0.41 0.23 0.08 0.04 0.01 0.00 0.00 0.00 0.00 0.00 0.00 0.00 0.00 0.00 0.00 0.00 0.00 0.00 0.00 0.00 0.00 0.00
0.00 0.00 0.00 0.00 0.01 0.01 0.01 0.02 0.01 0.00 0.00 0.00 0.00 0.00 0.00 0.00 0.00 0.07 0.64 0.58 0.45 0.24 0.12 0.09 0.05 0.02 0.00 0.00 0.00 0.00 0.00 0.00 0.00 0.00 0.00 0.00 0.00 0.00 0.00 0.00 0.00 0.00 0.00
0.00 0.00 0.00 0.00 0.00 0.01 0.01 0.01 0.02 0.01 0.00 0.00 0.00 0.00 0.00 0.00 0.01 0.13 0.27 0.21 0.35 0.13 0.11 0.08 0.05 0.01 0.00 0.00 0.00 0.00 0.00 0.00 0.00 0.00 0.00 0.00 0.00 0.00 0.00 0.00 0.00 0.00 0.00
0.00 0.00 0.00 0.00 0.00 0.00 0.00 0.01 0.01 0.04 0.04 0.02 0.03 0.02 0.00 0.00 0.00 0.07 0.10 0.08 0.06 0.10 0.11 0.08 0.03 0.01 0.00 0.00 0.00 0.00 0.00 0.00 0.00 0.00 0.00 0.00 0.00 0.00 0.00 0.00 0.00 0.00 0.00
0.00 0.00 0.00 0.00 0.00 0.00 0.00 0.00 0.00 0.00 0.01 0.00 0.01 0.01 0.00 0.00 0.00 0.02 0.02 0.03 0.05 0.05 0.06 0.08 0.03 0.02 0.00 0.00 0.00 0.00 0.00 0.00 0.00 0.00 0.00 0.00 0.00 0.00 0.00 0.00 0.00 0.00 0.00
0.00 0.00 0.00 0.00 0.00 0.00 0.00 0.00 0.00 0.01 0.00 0.00 0.00 0.00 0.00 0.00 0.02 0.07 0.06 0.01 0.01 0.01 0.02 0.04 0.01 0.00 0.00 0.00 0.00 0.00 0.00 0.00 0.00 0.00 0.00 0.00 0.00 0.00 0.00 0.00 0.00 0.00 0.00
0.00 0.00 0.00 0.00 0.00 0.00 0.00 0.01 0.02 0.01 0.00 0.01 0.01 0.01 0.00 0.00 0.02 0.08 0.04 0.01 0.02 0.02 0.01 0.02 0.00 0.00 0.00 0.00 0.00 0.00 0.00 0.00 0.00 0.00 0.00 0.00 0.00 0.00 0.00 0.00 0.00 0.00 0.00
0.00 0.00 0.00 0.00 0.00 0.00 0.00 0.00 0.01 0.03 0.03 0.02 0.02 0.01 0.01 0.00 0.00 0.03 0.09 0.07 0.02 0.02 0.01 0.01 0.00 0.00 0.00 0.00 0.00 0.00 0.00 0.00 0.00 0.00 0.00 0.00 0.00 0.00 0.00 0.00 0.00 0.00 0.00
0.00 0.00 0.00 0.00 0.00 0.00 0.00 0.00 0.01 0.01 0.02 0.01 0.00 0.00 0.00 0.00 0.00 0.01 0.02 0.05 0.07 0.04 0.01 0.00 0.00 0.00 0.00 0.00 0.00 0.00 0.00 0.00 0.00 0.00 0.00 0.00 0.00 0.00 0.00 0.00 0.00 0.00 0.00
0.00 0.00 0.00 0.00 0.00 0.00 0.00 0.00 0.01 0.03 0.03 0.02 0.02 0.02 0.02 0.00 0.00 0.00 0.00 0.01 0.01 0.02 0.02 0.01 0.01 0.01 0.00 0.02 0.03 0.04 0.04 0.03 0.01 0.01 0.00 0.00 0.00 0.00 0.00 0.00 0.00 0.00 0.00
0.00 0.00 0.00 0.00 0.00 0.00 0.00 0.00 0.01 0.02 0.04 0.05 0.02 0.02 0.01 0.01 0.00 0.00 0.00 0.00 0.00 0.00 0.00 0.00 0.00 0.00 0.00 0.01 0.05 0.08 0.07 0.11 0.10 0.06 0.01 0.00 0.00 0.00 0.00 0.00 0.00 0.00 0.00
0.00 0.00 0.00 0.00 0.00 0.00 0.00 0.00 0.00 0.02 0.04 0.04 0.04 0.02 0.03 0.01 0.00 0.00 0.00 0.00 0.00 0.00 0.00 0.00 0.00 0.00 0.00 0.00 0.00 0.01 0.01 0.01 0.02 0.02 0.01 0.00 0.00 0.00 0.00 0.00 0.00 0.00 0.00
0.00 0.00 0.00 0.00 0.00 0.00 0.00 0.00 0.00 0.01 0.02 0.04 0.04 0.03 0.03 0.02 0.02 0.03 0.00 0.00 0.00 0.00 0.00 0.00 0.00 0.00 0.00 0.00 0.00 0.00 0.00 0.00 0.02 0.02 0.01 0.00 0.00 0.00 0.00 0.00 0.00 0.00 0.00
0.00 0.00 0.00 0.00 0.00 0.00 0.00 0.00 0.01 0.01 0.02 0.03 0.06 0.04 0.03 0.04 0.04 0.05 0.04 0.00 0.00 0.00 0.00 0.00 0.00 0.00 0.00 0.00 0.00 0.00 0.00 0.00 0.01 0.00 0.00 0.01 0.01 0.01 0.00 0.00 0.00 0.00 0.00
0.00 0.00 0.00 0.00 0.00 0.00 0.00 0.00 0.00 0.03 0.04 0.04 0.06 0.08 0.03 0.02 0.01 0.02 0.02 0.00 0.00 0.00 0.00 0.00 0.00 0.00 0.00 0.00 0.00 0.00 0.00 0.00 0.00 0.00 0.00 0.00 0.00 0.00 0.00 0.00 0.00 0.00 0.00
0.00 0.00 0.00 0.00 0.00 0.00 0.00 0.00 0.00 0.03 0.06 0.07 0.09 0.09 0.06 0.04 0.02 0.01 0.02 0.01 0.00 0.00 0.00 0.00 0.00 0.00 0.00 0.00 0.00 0.01 0.01 0.00 0.00 0.00 0.00 0.00 0.00 0.00 0.01 0.01 0.01 0.00 0.01
0.00 0.00 0.00 0.00 0.00 0.00 0.00 0.00 0.01 0.04 0.07 0.09 0.09 0.08 0.07 0.05 0.04 0.02 0.01 0.01 0.00 0.00 0.00 0.00 0.00 0.00 0.00 0.00 0.00 0.02 0.03 0.01 0.00 0.00 0.00 0.00 0.00 0.00 0.00 0.01 0.00 0.00 0.00
MSLP
1011.40 1011.84 1012.39 1012.79 1013.11 1013.45 1013.58 1013.61 1013.57 1013.56 1013.52 1013.45 1013.36 1013.36 1013.41 1013.38 1013.42 1013.56 1013.61 1013.98 1014.09 1014.29 1014.54 1014.59 1014.75 1015.05 1015.01 1014.51 1014.51 1014.33 1014.21 1014.20 1013.92 1016.59 1017.64 1018.11 1018.05 1017.53 1017.09 1017.07 1016.85 1016.80 1017.40
1011.05 1011.61 1011.95 1012.40 1012.74 1012.90 1013.20 1013.26 1013.29 1013.19 1013.18 1013.13 1012.99 1012.83 1012.78 1012.93 1013.04 1013.14 1013.33 1013.28 1013.68 1013.97 1014.13 1014.36 1014.62 1014.75 1015.29 1015.12 1014.45 1015.02 1014.64 1014.53 1014.71 1015.97 1017.44 1017.54 1017.54 1017.27 1017.25 1017.08 1016.87 1016.22 1016.58
1010.87 1011.29 1011.86 1012.23 1012.47 1012.60 1012.72 1012.86 1012.86 1012.75 1012.70 1012.57 1012.54 1012.50 1012.34 1012.50 1012.56 1012.77 1013.02 1013.05 1013.23 1013.56 1013.55 1014.22 1014.46 1014.93 1015.24 1014.97 1015.03 1014.63 1014.44 1014.47 1014.55 1015.41 1016.54 1016.95 1016.78 1016.94 1016.76 1016.66 1016.67 1016.51 1016.74
1011.11 1011.33 1011.70 1011.77 1011.89 1012.05 1012.23 1012.28 1012.27 1012.22 1012.23 1012.20 1012.17 1012.08 1012.07 1012.08 1012.14 1012.23 1012.40 1012.58 1012.85 1013.34 1013.34 1013.89 1014.42 1014.69 1015.21 1015.30 1015.22 1015.22 1015.01 1014.71 1015.03 1015.19 1016.04 1016.55 1016.44 1016.75 1016.51 1015.99 1015.63 1015.83 1016.96
1011.73 1011.54 1011.76 1012.16 1012.12 1011.98 1011.78 1011.74 1011.78 1011.69 1011.56 1011.58 1011.67 1011.70 1011.76 1011.86 1011.71 1011.96 1012.10 1012.35 1012.57 1013.17 1013.47 1013.66 1014.24 1014.71 1015.55 1015.60 1015.18 1015.54 1015.43 1014.80 1014.62 1014.70 1015.87 1016.02 1015.86 1015.94 1016.23 1016.03 1015.62 1016.80 1017.56
1012.33 1011.99 1011.22 1012.09 1012.75 1012.82 1012.79 1011.62 1011.99 1011.50 1011.01 1010.93 1010.72 1010.96 1011.12 1011.08 1011.02 1011.45 1011.85 1012.26 1012.53 1012.96 1013.53 1013.57 1014.52 1015.36 1015.94 1016.25 1016.10 1016.51 1016.28 1015.52 1015.20 1014.69 1015.31 1015.93 1016.20 1016.15 1016.39 1016.31 1016.29 1017.13 1017.66
1012.20 1012.25 1012.09 1011.64 1012.76 1012.72 1012.80 1012.09 1011.78 1011.53 1011.09 1010.50 1010.37 1010.34 1010.58 1010.94 1011.52 1011.51 1011.71 1012.25 1012.59 1012.91 1013.55 1013.94 1014.16 1014.86 1016.03 1016.40 1016.65 1016.78 1017.00 1016.52 1015.99 1015.66 1015.77 1016.06 1016.44 1016.52 1016.82 1016.38 1017.01 1017.38 1017.81
1012.59 1011.87 1012.53 1012.22 1012.89 1013.01 1012.31 1012.14 1011.90 1011.28 1010.45 1010.39 1010.26 1010.24 1010.48 1011.76 1011.85 1011.57 1011.67 1012.48 1011.77 1013.06 1013.69 1014.21 1013.89 1014.97 1015.58 1016.08 1016.15 1016.62 1016.60 1016.88 1016.72 1015.79 1016.23 1016.63 1016.92 1017.04 1016.85 1016.90 1016.95 1017.32 1017.39
1013.08 1012.71 1012.96 1013.53 1012.86 1013.29 1012.81 1011.93 1011.32 1010.97 1010.67 1010.33 1010.70 1010.88 1011.11 1011.18 1012.30 1012.07 1011.71 1011.71 1011.10 1013.00 1014.15 1014.50 1014.33 1014.76 1015.63 1016.21 1016.32 1016.56 1016.77 1017.15 1017.45 1017.40 1017.73 1017.99 1017.68 1017.93 1017.73 1016.66 1016.16 1016.89 1016.36
1013.44 1013.72 1012.99 1013.13 1013.55 1012.80 1012.07 1011.73 1011.52 1011.12 1010.40 1010.08 1010.60 1010.85 1011.43 1010.81 1011.49 1011.51 1011.10 1011.05 1011.05 1012.26 1014.28 1014.93 1015.69 1014.80 1015.61 1016.37 1016.52 1016.61 1016.62 1016.91 1017.01 1017.48 1017.98 1018.25 1018.07 1018.19 1018.04 1017.22 1016.27 1015.86 1016.19
1013.80 1013.77 1013.24 1013.29 1013.27 1012.46 1011.75 1011.23 1010.90 1010.29 1010.17 1009.95 1010.01 1010.37 1010.69 1010.15 1010.71 1010.93 1010.91 1010.58 1009.64 1011.12 1012.63 1013.76 1015.29 1015.47 1015.78 1016.25 1016.61 1016.51 1016.50 1016.92 1016.81 1016.80 1016.72 1016.90 1017.15 1017.49 1017.35 1017.52 1017.70 1016.43 1016.59
1013.91 1013.96 1013.62 1013.35 1013.08 1012.28 1011.45 1011.05 1010.54 1009.83 1010.05 1009.91 1010.01 1010.05 1009.50 1009.77 1010.91 1011.10 1010.78 1010.40 1010.91 1011.37 1012.01 1012.76 1014.20 1015.58 1015.74 1016.18 1016.61 1016.76 1017.12 1017.02 1016.55 1016.01 1016.28 1016.20 1016.64 1016.77 1017.37 1017.72 1018.33 1018.11 1017.89
1014.46 1014.00 1013.55 1013.05 1012.58 1012.27 1011.63 1011.41 1010.89 1009.88 1009.90 1009.46 1009.14 1009.19 1008.97 1009.17 1010.18 1011.00 1011.86 1010.90 1010.61 1011.05 1011.54 1012.58 1013.46 1015.15 1015.81 1016.28 1016.67 1016.93 1016.93 1016.19 1015.82 1015.61 1015.66 1016.36 1016.99 1017.58 1017.99 1018.17 1018.58 1018.66 1018.66
1014.45 1014.10 1013.54 1013.07 1012.68 1012.33 1011.99 1011.95 1011.75 1011.28 1010.63 1009.80 1009.20 1009.63 1009.08 1009.22 1009.46 1010.39 1010.95 1011.44 1011.44 1011.63 1012.10 1012.83 1013.65 1015.26 1015.86 1015.55 1016.50 1016.95 1015.99 1015.48 1015.61 1015.40 1015.60 1016.14 1016.90 1017.49 1017.54 1017.64 1017.72 1017.80 1017.90
1014.27 1014.02 1013.40 1012.58 1012.23 1012.25 1012.28 1012.84 1012.71 1012.37 1013.03 1012.41 1011.35 1010.69 1010.25 1010.17 1010.69 1011.12 1011.09 1011.32 1011.47 1011.89 1012.44 1013.17 1014.12 1015.06 1015.30 1015.04 1015.48 1015.80 1015.36 1015.36 1015.47 1015.53 1015.94 1016.43 1016.32 1016.67 1017.13 1017.61 1017.63 1017.78 1017.53
1013.75 1013.33 1013.32 1012.99 1012.48 1012.68 1012.57 1012.59 1012.79 1012.84 1012.93 1012.79 1012.82 1012.67 1011.06 1011.07 1011.39 1010.97 1011.20 1011.29 1011.46 1011.81 1012.36 1013.01 1013.27 1013.63 1013.74 1013.70 1014.21 1014.63 1014.65 1014.91 1015.07 1015.51 1015.66 1016.09 1016.16 1016.25 1016.79 1017.10 1017.42 1017.52 1017.61
1014.12 1013.78 1013.50 1013.18 1013.24 1013.14 1013.03 1013.02 1012.77 1012.33 1012.48 1012.60 1012.67 1012.54 1012.45 1012.38 1011.56 1011.36 1011.19 1011.56 1011.50 1011.72 1012.02 1012.26 1012.19 1012.29 1012.56 1012.66 1013.04 1013.44 1013.80 1014.09 1014.91 1015.43 1015.40 1016.00 1016.03 1016.32 1017.04 1016.93 1016.99 1017.30 1017.82
1014.46 1014.20 1013.84 1013.29 1013.11 1013.03 1013.04 1013.15 1013.07 1012.81 1012.54 1012.44 1012.53 1012.52 1012.41 1012.34 1011.84 1011.69 1011.45 1011.67 1012.10 1012.00 1011.65 1011.83 1011.80 1011.99 1011.99 1012.05 1012.11 1012.58 1012.95 1013.58 1014.46 1015.17 1015.94 1015.59 1015.79 1016.46 1016.79 1016.76 1016.79 1017.04 1017.39
1014.50 1014.34 1014.45 1013.88 1013.49 1013.64 1013.16 1013.31 1013.16 1013.04 1012.96 1012.75 1012.39 1012.24 1012.19 1012.21 1012.06 1011.99 1011.90 1011.19 1011.50 1011.66 1011.59 1011.66 1011.80 1012.08 1012.25 1012.33 1012.37 1012.37 1012.69 1013.51 1014.23 1015.55 1015.71 1015.29 1015.77 1015.83 1016.13 1016.50 1016.76 1016.83 1017.19
1014.36 1014.94 1014.95 1014.22 1013.74 1013.61 1013.63 1013.69 1013.68 1013.56 1013.09 1013.13 1013.14 1013.12 1012.95 1011.86 1011.76 1012.04 1011.45 1011.21 1011.46 1011.55 1011.44 1011.36 1011.79 1012.06 1012.43 1012.54 1012.76 1013.16 1013.62 1014.22 1014.92 1015.39 1015.78 1015.76 1015.58 1016.22 1016.25 1016.36 1016.43 1017.10 1017.09
1014.54 1014.26 1015.06 1014.35 1014.25 1014.24 1014.08 1014.09 1013.91 1013.66 1013.49 1013.08 1013.38 1013.56 1013.67 1012.95 1012.26 1012.04 1011.97 1011.89 1011.76 1011.77 1011.58 1011.19 1011.17 1011.39 1012.03 1012.39 1013.00 1013.39 1013.69 1014.35 1014.98 1015.05 1015.63 1015.29 1016.04 1016.20 1016.81 1016.71 1016.03 1016.47 1016.88
1014.71 1014.40 1014.66 1014.88 1014.85 1014.77 1014.79 1014.50 1014.27 1014.07 1013.79 1013.63 1013.56 1013.70 1013.62 1012.81 1012.91 1012.93 1012.86 1012.73 1012.60 1012.61 1012.60 1012.41 1011.89 1011.81 1011.87 1012.15 1012.74 1012.99 1013.31 1013.84 1014.25 1014.67 1014.89 1015.46 1015.98 1016.36 1016.81 1016.99 1016.42 1016.16 1016.58
1015.06 1014.85 1014.98 1015.40 1015.38 1015.39 1015.01 1014.96 1014.76 1014.48 1014.30 1014.17 1013.91 1013.95 1013.98 1013.77 1013.66 1013.50 1013.62 1013.51 1013.49 1013.37 1013.34 1013.22 1012.82 1012.78 1012.65 1012.47 1012.18 1012.42 1012.70 1013.18 1013.62 1014.15 1014.71 1015.25 1015.82 1016.34 1016.62 1016.86 1016.75 1016.63 1016.68
1015.84 1015.77 1016.00 1016.09 1015.99 1015.83 1015.46 1015.19 1015.00 1014.86 1014.70 1014.52 1014.29 1014.31 1014.58 1014.58 1014.35 1014.21 1014.17 1014.00 1013.88 1013.76 1013.72 1013.36 1013.17 1013.38 1013.17 1013.16 1012.79 1012.71 1012.11 1012.37 1013.09 1013.76 1014.10 1014.78 1015.39 1015.80 1016.37 1016.68 1017.11 1016.97 1016.87
1016.55 1016.77 1016.82 1016.70 1016.45 1016.20 1015.90 1015.54 1015.31 1015.11 1015.01 1014.77 1014.84 1014.60 1014.73 1014.88 1014.93 1014.90 1014.75 1014.43 1014.35 1014.18 1013.95 1013.80 1013.68 1013.59 1013.64 1013.41 1013.19 1013.15 1013.39 1013.64 1013.51 1013.24 1013.83 1014.29 1014.69 1014.96 1015.58 1016.09 1016.75 1016.69 1016.64
1016.95 1017.29 1017.30 1017.12 1016.99 1016.75 1016.41 1016.12 1015.87 1015.55 1015.48 1015.30 1015.46 1015.15 1015.48 1015.59 1015.46 1015.24 1015.03 1014.69 1014.35 1014.26 1014.30 1014.20 1013.95 1013.73 1013.59 1013.45 1013.39 1013.39 1013.47 1013.62 1013.55 1013.58 1013.35 1013.69 1014.06 1014.78 1015.27 1015.52 1015.99 1016.16 1015.85
Thickness
5815 5813 5810 5808 5808 5805 5803 5803 5805 5807 5808 5807 5808 5807 5805 5803 5801 5797 5793 5786 5778 5773 5768 5761 5753 5744 5738 5738 5731 5725 5717 5710 5700 5668 5649 5634 5625 5621 5618 5613 5611 5611 5606
5816 5811 5808 5808 5807 5806 5803 5804 5806 5806 5807 5806 5807 5808 5808 5805 5801 5798 5792 5790 5779 5772 5770 5763 5754 5748 5736 5732 5733 5719 5714 5709 5698 5675 5654 5644 5634 5629 5623 5622 5619 5622 5619
5812 5808 5803 5802 5802 5801 5802 5802 5804 5806 5806 5807 5805 5804 5807 5804 5803 5798 5794 5790 5784 5777 5775 5765 5756 5747 5737 5734 5729 5727 5721 5712 5705 5687 5666 5655 5648 5639 5635 5633 5629 5627 5625
5805 5803 5799 5798 5799 5799 5799 5800 5802 5805 5805 5805 5805 5805 5805 5805 5803 5799 5797 5793 5787 5779 5776 5769 5759 5751 5740 5732 5728 5724 5720 5714 5701 5695 5677 5664 5658 5650 5645 5644 5644 5643 5633
5793 5795 5792 5792 5794 5794 5798 5800 5802 5803 5806 5807 5805 5804 5804 5804 5804 5799 5799 5795 5789 5781 5773 5771 5763 5753 5739 5733 5730 5722 5719 5717 5710 5701 5683 5675 5669 5662 5654 5653 5653 5641 5637
5781 5784 5797 5789 5782 5784 5785 5795 5793 5798 5803 5806 5805 5804 5804 5805 5803 5798 5797 5792 5788 5781 5771 5770 5760 5747 5736 5727 5724 5713 5713 5714 5710 5706 5692 5681 5673 5668 5662 5659 5656 5645 5643
5777 5777 5778 5786 5778 5779 5780 5785 5789 5791 5794 5803 5803 5804 5802 5801 5792 5792 5789 5785 5781 5776 5771 5766 5762 5753 5736 5728 5721 5715 5708 5709 5710 5705 5693 5685 5677 5673 5664 5665 5657 5651 5645
5761 5766 5762 5771 5761 5768 5770 5778 5782 5787 5795 5796 5799 5799 5797 5786 5785 5789 5785 5776 5778 5771 5765 5761 5763 5752 5742 5733 5729 5719 5715 5709 5708 5710 5700 5689 5679 5673 5671 5668 5666 5660 5659
5751 5751 5751 5750 5755 5750 5757 5771 5779 5782 5784 5789 5786 5785 5782 5787 5776 5777 5781 5777 5781 5761 5755 5754 5755 5752 5741 5731 5728 5721 5714 5709 5703 5701 5692 5686 5683 5673 5669 5676 5678 5668 5674
5737 5735 5742 5744 5741 5750 5760 5768 5770 5776 5782 5787 5780 5780 5773 5782 5776 5774 5777 5777 5773 5764 5751 5745 5736 5748 5739 5729 5726 5723 5716 5712 5708 5700 5693 5684 5681 5678 5673 5672 5680 5682 5680
5729 5729 5735 5740 5741 5752 5761 5768 5771 5777 5777 5779 5778 5776 5773 5784 5777 5773 5767 5769 5774 5759 5755 5750 5737 5736 5736 5730 5723 5725 5720 5713 5711 5708 5705 5699 5691 5684 5680 5676 5671 5680 5678
5722 5720 5724 5733 5741 5750 5759 5763 5768 5776 5771 5772 5770 5770 5775 5778 5765 5761 5760 5760 5751 5758 5756 5757 5745 5731 5733 5729 5722 5719 5713 5710 5711 5714 5706 5704 5697 5692 5684 5676 5669 5668 5668
5709 5714 5721 5727 5734 5743 5749 5752 5758 5769 5769 5771 5773 5772 5774 5774 5767 5756 5748 5756 5757 5756 5757 5754 5744 5729 5725 5724 5719 5715 5713 5717 5716 5714 5712 5700 5694 5687 5681 5674 5667 5665 5660
5697 5702 5710 5715 5721 5728 5736 5737 5743 5749 5757 5767 5770 5766 5773 5770 5768 5760 5756 5751 5753 5753 5750 5745 5739 5726 5723 5726 5718 5712 5721 5723 5717 5716 5712 5708 5700 5689 5685 5682 5676 5673 5667
5689 5691 5699 5711 5715 5717 5722 5720 5723 5731 5726 5740 5751 5757 5759 5762 5759 5752 5752 5753 5754 5749 5746 5743 5735 5724 5721 5723 5721 5718 5722 5721 5716 5714 5709 5701 5703 5699 5689 5683 5679 5673 5672
5683 5690 5690 5694 5702 5703 5707 5711 5710 5713 5716 5719 5722 5727 5748 5749 5747 5752 5751 5750 5748 5747 5744 5738 5737 5732 5731 5731 5725 5721 5722 5720 5718 5713 5710 5703 5701 5700 5693 5689 5683 5677 5673
5670 5674 5678 5682 5681 5684 5689 5692 5697 5706 5707 5710 5711 5717 5722 5725 5736 5742 5746 5742 5742 5741 5742 5739 5740 5740 5738 5737 5733 5728 5723 5723 5716 5710 5710 5701 5699 5695 5686 5688 5688 5682 5673
5657 5655 5664 5670 5673 5675 5677 5679 5683 5688 5696 5703 5702 5707 5711 5716 5723 5729 5735 5734 5732 5734 5739 5735 5736 5736 5738 5738 5738 5730 5727 5721 5715 5708 5702 5703 5698 5690 5686 5687 5689 5684 5679
5644 5646 5645 5652 5657 5654 5663 5662 5668 5672 5677 5683 5692 5699 5703 5705 5709 5713 5718 5732 5730 5730 5731 5730 5729 5728 5728 5728 5727 5726 5723 5716 5711 5698 5696 5702 5696 5693 5690 5688 5685 5684 5680
5633 5626 5626 5634 5641 5643 5643 5643 5648 5652 5660 5666 5671 5676 5684 5698 5705 5707 5713 5720 5722 5723 5725 5726 5722 5722 5720 5719 5717 5714 5711 5704 5698 5694 5691 5692 5693 5688 5687 5686 5684 5676 5680
5619 5619 5610 5619 5621 5622 5626 5626 5628 5636 5642 5652 5655 5659 5661 5677 5689 5697 5700 5703 5708 5710 5714 5720 5722 5722 5717 5714 5708 5705 5705 5698 5692 5692 5686 5690 5683 5682 5677 5677 5683 5679 5676
5607 5607 5604 5602 5603 5605 5605 5609 5612 5615 5624 5631 5638 5643 5648 5664 5670 5675 5679 5685 5689 5693 5697 5701 5708 5710 5711 5708 5704 5702 5701 5696 5694 5690 5688 5683 5678 5674 5669 5667 5673 5677 5674
5593 5593 5593 5588 5587 5584 5588 5588 5591 5596 5601 5609 5619 5625 5631 5640 5649 5656 5659 5665 5670 5676 5680 5684 5691 5692 5695 5696 5699 5699 5698 5695 5691 5687 5683 5678 5673 5668 5665 5663 5663 5664 5666
5578 5575 5572 5569 5566 5563 5566 5568 5570 5573 5580 5590 5600 5608 5611 5619 5629 5637 5643 5650 5655 5661 5665 5672 5678 5678 5682 5684 5688 5689 5693 5693 5687 5682 5681 5676 5670 5666 5661 5658 5653 5655 5656
5562 5558 5554 5549 5547 5545 5545 5549 5553 5558 5564 5573 5582 5592 5598 5604 5611 5619 5626 5634 5640 5646 5653 5658 5663 5666 5668 5673 5677 5679 5680 5680 5679 5679 5675 5673 5671 5669 5663 5655 5648 5650 5650
5549 5543 5539 5535 5531 5529 5531 5535 5540 5544 5550 5558 5563 5574 5579 5585 5594 5603 5611 5620 5628 5634 5638 5642 5648 5654 5658 5663 5666 5671 5672 5672 5673 5674 5674 5672 5671 5664 5659 5655 5650 5648 5650